FW7545 Weather Reports


time (UTC)temp
C
wind
direction
speed
KPH
gust
KPH
rain 1hr
cm
rain 24hr
cm
rain mn
cm
humidity
%
barometer
mb
20260504033504 7 296 0.0 0.0 0.00 0.00 0.00 65 1012.0
20260504033004 7 296 0.0 0.0 0.00 0.00 0.00 65 1012.1
20260504032504 7 296 0.0 0.0 0.00 0.00 0.00 64 1012.1
20260504032004 7 296 0.0 0.0 0.00 0.00 0.00 65 1012.1
20260504031504 7 296 0.0 0.0 0.00 0.00 0.00 63 1012.1
20260504031004 7 296 0.0 0.0 0.00 0.00 0.00 63 1012.1
20260504030503 7 296 0.0 0.0 0.00 0.00 0.00 62 1012.0
20260504030004 7 296 0.0 0.0 0.00 0.00 0.00 62 1012.0
20260504025504 7 296 0.0 0.0 0.00 0.00 0.00 61 1012.1
20260504025003 7 296 0.0 0.0 0.00 0.00 0.00 60 1012.1
20260504024504 8 296 0.0 0.0 0.00 0.00 0.00 59 1012.1
20260504024004 8 296 0.0 0.0 0.00 0.00 0.00 58 1012.1
20260504023004 8 296 0.0 0.0 0.00 0.00 0.00 57 1012.2
20260504022504 8 296 0.0 0.0 0.00 0.00 0.00 57 1012.2
20260504022004 8 296 0.0 0.0 0.00 0.00 0.00 56 1012.2
20260504021504 9 296 0.0 0.0 0.00 0.00 0.00 55 1012.2
20260504021004 9 296 0.0 0.0 0.00 0.00 0.00 55 1012.2
20260504020504 9 296 0.0 0.0 0.00 0.00 0.00 55 1012.2
20260504020004 9 296 0.0 0.0 0.00 0.00 0.00 54 1012.2
20260504015503 10 296 0.0 0.0 0.00 0.00 0.00 52 1012.1
20260504015004 10 296 0.0 1.6 0.00 0.00 0.00 51 1012.1
20260504014503 10 296 0.0 0.0 0.00 0.00 0.00 51 1012.0
20260504014004 10 296 0.0 0.0 0.00 0.00 0.00 49 1011.9
20260504013504 11 296 0.0 0.0 0.00 0.00 0.00 48 1011.9
20260504013004 11 296 0.0 0.0 0.00 0.00 0.00 47 1011.8
20260504012504 11 296 0.0 0.0 0.00 0.00 0.00 46 1011.7
20260504012004 11 296 0.0 0.0 0.00 0.00 0.00 45 1011.7
20260504011503 12 296 0.0 0.0 0.00 0.00 0.00 44 1011.7
20260504011004 12 296 0.0 0.0 0.00 0.00 0.00 45 1011.6
20260504010504 12 296 0.0 0.0 0.00 0.00 0.00 42 1011.5
20260504010004 12 296 0.0 0.0 0.00 0.00 0.00 41 1011.4
20260504005504 12 296 0.0 0.0 0.00 0.00 0.00 41 1011.4
20260504005004 13 296 0.0 0.0 0.00 0.00 0.00 38 1011.4
20260504004504 13 296 0.0 0.0 0.00 0.00 0.00 40 1011.2
20260504004004 13 296 0.0 0.0 0.00 0.00 0.00 37 1011.2
20260504003504 13 296 0.0 0.0 0.00 0.00 0.00 37 1011.1
20260504003004 13 296 0.0 1.6 0.00 0.00 0.00 37 1011.1
20260504002504 13 296 0.0 1.6 0.00 0.00 0.00 35 1011.0
20260504002004 13 296 1.6 3.2 0.00 0.00 0.00 34 1011.0
20260504001004 13 273 3.2 4.8 0.00 0.00 0.00 33 1010.8
20260504000505 14 280 3.2 12.9 0.00 0.00 0.00 33 1010.7
20260504000004 14 257 1.6 4.8 0.00 0.00 0.00 33 1010.7
20260503235504 14 293 4.8 11.3 0.00 0.00 0.00 32 1010.6
20260503235004 14 286 4.8 9.7 0.00 0.00 0.00 32 1010.5
20260503234504 14 278 4.8 9.7 0.00 0.00 0.00 32 1010.5
20260503233004 15 323 4.8 19.3 0.00 0.00 0.00 31 1010.4
20260503232004 15 290 0.0 4.8 0.00 0.00 0.00 31 1010.3
20260503231504 15 270 0.0 4.8 0.00 0.00 0.00 32 1010.4
20260503231004 15 288 0.0 1.6 0.00 0.00 0.00 32 1010.3
20260503230504 15 284 4.8 14.5 0.00 0.00 0.00 30 1010.3
20260503225504 15 297 3.2 14.5 0.00 0.00 0.00 30 1010.2
20260503225004 15 277 8.0 19.3 0.00 0.00 0.00 29 1010.2
20260503224504 15 271 8.0 25.7 0.00 0.00 0.00 29 1010.1
20260503224004 15 280 9.7 24.1 0.00 0.00 0.00 29 1010.2
20260503223504 15 292 3.2 11.3 0.00 0.00 0.00 30 1010.0
20260503222504 15 284 1.6 14.5 0.00 0.00 0.00 29 1010.2
20260503222004 15 341 6.4 20.9 0.00 0.00 0.00 28 1010.1
20260503221504 16 297 9.7 29.0 0.00 0.00 0.00 28 1010.0
20260503221004 16 320 4.8 22.5 0.00 0.00 0.00 28 1010.0
20260503220504 16 286 3.2 22.5 0.00 0.00 0.00 29 1010.0
20260503220005 16 273 12.9 29.0 0.00 0.00 0.00 28 1009.9
20260503215504 16 286 6.4 19.3 0.00 0.00 0.00 29 1009.9
20260503215004 16 3 3.2 19.3 0.00 0.00 0.00 31 1009.9
20260503214004 16 354 4.8 16.1 0.00 0.00 0.00 27 1010.0
20260503213504 16 283 8.0 22.5 0.00 0.00 0.00 27 1010.0
20260503212504 15 276 4.8 12.9 0.00 0.00 0.00 29 1009.9
20260503212004 15 36 3.2 12.9 0.00 0.00 0.00 29 1010.0
20260503205504 15 279 14.5 29.0 0.00 0.00 0.00 28 1010.1
20260503204504 15 21 11.3 32.2 0.00 0.00 0.00 28 1010.1
20260503203504 15 332 6.4 19.3 0.00 0.00 0.00 29 1010.2
20260503203004 15 284 4.8 14.5 0.00 0.00 0.00 30 1010.2
20260503202504 15 328 9.7 27.4 0.00 0.00 0.00 29 1010.1
20260503202004 15 275 14.5 24.1 0.00 0.00 0.00 30 1010.1
20260503201504 15 309 11.3 27.4 0.00 0.00 0.00 29 1010.5
20260503201004 14 308 11.3 37.0 0.00 0.00 0.00 29 1010.5
20260503200504 14 297 8.0 32.2 0.00 0.00 0.00 31 1010.5
20260503195503 15 301 3.2 20.9 0.00 0.00 0.00 30 1010.5
20260503195005 15 326 9.7 22.5 0.00 0.00 0.00 30 1010.5
20260503194504 15 299 9.7 22.5 0.00 0.00 0.00 31 1010.5
20260503194003 15 22 8.0 24.1 0.00 0.00 0.00 31 1010.6
20260503193504 15 13 4.8 19.3 0.00 0.00 0.00 31 1010.6
20260503193004 14 305 8.0 27.4 0.00 0.00 0.00 31 1010.6
20260503191504 14 282 11.3 32.2 0.00 0.00 0.00 31 1010.7
20260503191004 15 268 11.3 25.7 0.00 0.00 0.00 31 1010.7
20260503190504 14 0 8.0 16.1 0.00 0.00 0.00 31 1010.8
20260503190005 14 320 6.4 19.3 0.00 0.00 0.00 34 1010.8
20260503185504 13 339 4.8 16.1 0.00 0.00 0.00 35 1010.8
20260503185004 13 17 4.8 19.3 0.00 0.00 0.00 34 1010.8
20260503184504 13 312 11.3 25.7 0.00 0.00 0.00 34 1010.9
20260503184004 14 273 17.7 33.8 0.00 0.00 0.00 33 1010.8
20260503183504 13 18 4.8 32.2 0.00 0.00 0.00 35 1010.9
20260503183004 13 318 8.0 25.7 0.00 0.00 0.00 35 1011.2
20260503182505 13 290 14.5 37.0 0.00 0.00 0.00 35 1011.2
20260503182005 13 292 11.3 32.2 0.00 0.00 0.00 35 1010.9
20260503181505 13 282 17.7 35.4 0.00 0.00 0.00 34 1010.9
20260503181004 13 306 11.3 22.5 0.00 0.00 0.00 34 1010.9
20260503180505 12 323 8.0 32.2 0.00 0.00 0.00 37 1010.9
20260503180005 12 267 12.9 32.2 0.00 0.00 0.00 35 1011.1
20260503175504 12 284 11.3 27.4 0.00 0.00 0.00 37 1011.1
20260503175005 12 269 8.0 16.1 0.00 0.00 0.00 38 1011.2
20260503174505 12 276 4.8 19.3 0.00 0.00 0.00 39 1011.5
20260503174004 12 311 8.0 16.1 0.00 0.00 0.00 40 1011.5
20260503172504 11 348 6.4 25.7 0.00 0.00 0.00 39 1011.5
20260503172004 11 314 14.5 41.8 0.00 0.00 0.00 39 1011.7
20260503171504 11 295 11.3 29.0 0.00 0.00 0.00 41 1011.7
20260503171004 11 25 8.0 19.3 0.00 0.00 0.00 41 1011.7
20260503170504 11 302 12.9 32.2 0.00 0.00 0.00 42 1011.7
20260503151004 9 319 3.2 12.9 0.00 0.00 0.00 46 1012.1
20260503150504 9 310 6.4 19.3 0.00 0.00 0.00 47 1012.1
20260503131004 7 336 3.2 22.5 0.00 0.00 0.00 56 1012.1
20260503130503 7 322 4.8 19.3 0.00 0.00 0.00 56 1012.0
20260503110504 6 10 4.8 19.3 0.00 0.00 0.00 62 1011.3
20260503081504 7 16 4.8 14.5 0.00 0.00 0.00 55 1010.3
20260503072505 7 9 3.2 19.3 0.00 0.00 0.00 56 1010.2
20260503072003 7 317 0.0 3.2 0.00 0.00 0.00 55 1010.2
20260503071504 7 354 4.8 19.3 0.00 0.00 0.00 54 1010.2
20260503071004 7 26 3.2 9.7 0.00 0.00 0.00 54 1010.3
20260503070504 7 2 3.2 4.8 0.00 0.00 0.00 55 1010.3
20260503055004 8 7 3.2 4.8 0.00 0.00 0.00 50 1010.6
20260503054504 8 13 1.6 3.2 0.00 0.00 0.00 51 1010.6
20260503054004 8 20 1.6 4.8 0.00 0.00 0.00 53 1010.6
20260503053504 8 20 3.2 8.0 0.00 0.00 0.00 49 1010.6
20260503053004 8 6 3.2 11.3 0.00 0.00 0.00 48 1010.7
20260503052504 9 14 3.2 12.9 0.00 0.00 0.00 49 1010.7
20260503052004 9 355 1.6 4.8 0.00 0.00 0.00 49 1010.7
20260503051004 9 84 0.0 19.3 0.00 0.00 0.00 48 1010.8
20260503050504 9 0 1.6 11.3 0.00 0.00 0.00 48 1010.8
20260503050005 9 30 1.6 4.8 0.00 0.00 0.00 49 1010.8
20260503045504 9 51 0.0 19.3 0.00 0.00 0.00 49 1010.7
20260503045004 9 48 1.6 11.3 0.00 0.00 0.00 48 1010.8
20260503044004 9 12 1.6 4.8 0.00 0.00 0.00 47 1010.9
20260503043504 9 347 1.6 4.8 0.00 0.00 0.00 47 1010.9
20260503043004 9 14 1.6 11.3 0.00 0.00 0.00 47 1011.0
20260503042504 9 0 1.6 8.0 0.00 0.00 0.00 47 1010.9
20260503042004 9 4 3.2 14.5 0.00 0.00 0.00 46 1011.0
20260503041004 10 355 3.2 14.5 0.00 0.00 0.00 46 1011.0
20260503040505 10 6 3.2 12.9 0.00 0.00 0.00 46 1010.9
20260503040004 10 344 4.8 12.9 0.00 0.00 0.00 46 1010.9
20260503035504 10 332 1.6 16.1 0.00 0.00 0.00 46 1011.0
20260503035004 10 49 1.6 4.8 0.00 0.00 0.00 46 1010.9
20260503034504 10 13 3.2 4.8 0.00 0.00 0.00 45 1010.9
20260503034004 10 14 3.2 8.0 0.00 0.00 0.00 45 1010.9